,,,PA_Meas_PMT16A,,PR_Meas_QMR101_102,,RH_Meas_QMH101,,SR_Meas_QMS101,,TA_Meas_QMH101,,GenWind,,GenWind,
date,time,status,PA,status,PR,status,RH,status,SR,status,TA,status,DirAvg,status,SpdAvg,
2014-07-14, 00:00:04,VALID,1011.17,VALID,0,VALID,92.1572,VALID,0,VALID,25.5261,VALID,96,VALID,0,
2014-07-14, 00:01:04,VALID,1011.16,VALID,0,VALID,92.8588,VALID,0,VALID,25.5066,VALID,96,VALID,0,
2014-07-14, 00:02:04,VALID,1011.14,VALID,0,VALID,93.0189,VALID,0,VALID,25.4871,VALID,96,VALID,0,
2014-07-14, 00:03:04,VALID,1011.12,VALID,0,VALID,93.2172,VALID,0.112112,VALID,25.4657,VALID,96,VALID,0,
2014-07-14, 00:04:04,VALID,1011.11,VALID,0,VALID,93.5451,VALID,0,VALID,25.4677,VALID,96,VALID,0,
2014-07-14, 00:05:04,VALID,1011.09,VALID,0,VALID,93.9035,VALID,0.112112,VALID,25.4871,VALID,96,VALID,0,
2014-07-14, 00:06:04,VALID,1011.08,VALID,0,VALID,93.9722,VALID,0.112112,VALID,25.4657,VALID,96,VALID,0,
2014-07-14, 00:07:04,VALID,1011.03,VALID,0,VALID,94.1781,VALID,0.112112,VALID,25.4657,VALID,96,VALID,0,
2014-07-14, 00:08:04,VALID,1011.04,VALID,0,VALID,93.9569,VALID,0.112112,VALID,25.4462,VALID,96,VALID,0,
2014-07-14, 00:09:04,VALID,1010.99,VALID,0,VALID,94.0942,VALID,0,VALID,25.4871,VALID,96,VALID,0,
2014-07-14, 00:10:04,VALID,1010.99,VALID,0,VALID,94.3077,VALID,0,VALID,25.4657,VALID,96,VALID,0,
2014-07-14, 00:11:04,VALID,1010.98,VALID,0,VALID,94.2009,VALID,0,VALID,25.4677,VALID,96,VALID,0,
2014-07-14, 00:12:04,VALID,1010.98,VALID,0,VALID,93.9645,VALID,0.112112,VALID,25.4677,VALID,96,VALID,0,
2014-07-14, 00:13:04,VALID,1010.96,VALID,0,VALID,94.0103,VALID,0.112112,VALID,25.4657,VALID,96,VALID,0,
2014-07-14, 00:14:04,VALID,1010.92,VALID,0,VALID,94.056,VALID,0,VALID,25.4871,VALID,96,VALID,0,
2014-07-14, 00:15:04,VALID,1010.91,VALID,0,VALID,94.3001,VALID,0.112112,VALID,25.4677,VALID,96,VALID,0,
2014-07-14, 00:16:04,VALID,1010.89,VALID,0,VALID,94.4068,VALID,0,VALID,25.4482,VALID,96,VALID,0,
2014-07-14, 00:17:04,VALID,1010.88,VALID,0,VALID,94.5517,VALID,0.112112,VALID,25.4462,VALID,96,VALID,0,
2014-07-14, 00:18:04,VALID,1010.87,VALID,0,VALID,94.8949,VALID,0.112112,VALID,25.4267,VALID,96,VALID,0,
2014-07-14, 00:19:04,VALID,1010.86,VALID,0,VALID,95.1389,VALID,0,VALID,25.3877,VALID,96,VALID,0,
2014-07-14, 00:20:04,VALID,1010.83,VALID,0,VALID,95.3524,VALID,0.112112,VALID,25.3877,VALID,96,VALID,0,
2014-07-14, 00:21:04,VALID,1010.8,VALID,0,VALID,95.6574,VALID,0.112112,VALID,25.4092,VALID,96,VALID,0,
2014-07-14, 00:22:04,VALID,1010.79,VALID,0,VALID,95.7185,VALID,0.112112,VALID,25.3683,VALID,96,VALID,0,
2014-07-14, 00:23:04,VALID,1010.79,VALID,0,VALID,95.8328,VALID,0,VALID,25.3702,VALID,96,VALID,0,
2014-07-14, 00:24:04,VALID,1010.76,VALID,0,VALID,95.9549,VALID,0.112112,VALID,25.3488,VALID,96,VALID,0,
2014-07-14, 00:25:04,VALID,1010.77,VALID,0,VALID,96.0769,VALID,0,VALID,25.3312,VALID,96,VALID,0,
2014-07-14, 00:26:04,VALID,1010.75,VALID,0,VALID,96.1684,VALID,0,VALID,25.3098,VALID,96,VALID,0,
2014-07-14, 00:27:04,VALID,1010.77,VALID,0,VALID,96.298,VALID,0.112112,VALID,25.3098,VALID,96,VALID,0,
2014-07-14, 00:28:04,VALID,1010.77,VALID,0,VALID,96.3971,VALID,0.112112,VALID,25.3312,VALID,96,VALID,0,
2014-07-14, 00:29:04,VALID,1010.78,VALID,0,VALID,96.3361,VALID,0.112112,VALID,25.3098,VALID,96,VALID,0,
2014-07-14, 00:30:04,VALID,1010.78,VALID,0,VALID,96.5268,VALID,0,VALID,25.2903,VALID,96,VALID,0,
2014-07-14, 00:31:04,VALID,1010.78,VALID,0,VALID,96.6107,VALID,0.112112,VALID,25.2903,VALID,96,VALID,0,
2014-07-14, 00:32:04,VALID,1010.75,VALID,0,VALID,96.6259,VALID,0.112112,VALID,25.2903,VALID,96,VALID,0,
2014-07-14, 00:33:04,VALID,1010.76,VALID,0,VALID,96.6335,VALID,0,VALID,25.2903,VALID,96,VALID,0,
2014-07-14, 00:34:04,VALID,1010.76,VALID,0,VALID,96.6183,VALID,0,VALID,25.2708,VALID,96,VALID,0,
2014-07-14, 00:35:04,VALID,1010.73,VALID,0,VALID,96.7098,VALID,0.112112,VALID,25.3117,VALID,96,VALID,0,
2014-07-14, 00:36:04,VALID,1010.74,VALID,0,VALID,96.8089,VALID,0.112112,VALID,25.2708,VALID,96,VALID,0,
2014-07-14, 00:37:04,VALID,1010.71,VALID,0,VALID,96.8852,VALID,0.112112,VALID,25.2727,VALID,96,VALID,0,
2014-07-14, 00:38:04,VALID,1010.7,VALID,0,VALID,97.0377,VALID,0.112112,VALID,25.2532,VALID,96,VALID,0,
2014-07-14, 00:39:04,VALID,1010.69,VALID,0,VALID,97.2131,VALID,0,VALID,25.2532,VALID,96,VALID,0,
2014-07-14, 00:40:04,VALID,1010.69,VALID,0,VALID,97.3656,VALID,0.112112,VALID,25.2337,VALID,96,VALID,0,
2014-07-14, 00:41:04,VALID,1010.67,VALID,0,VALID,97.4876,VALID,0,VALID,25.2142,VALID,96,VALID,0,
2014-07-14, 00:42:04,VALID,1010.65,VALID,0,VALID,97.6935,VALID,0,VALID,25.1947,VALID,96,VALID,0,
2014-07-14, 00:43:04,VALID,1010.65,VALID,0,VALID,97.7927,VALID,0,VALID,25.1947,VALID,96,VALID,0,
2014-07-14, 00:44:04,VALID,1010.64,VALID,0,VALID,97.9604,VALID,0.112112,VALID,25.1752,VALID,96,VALID,0,
2014-07-14, 00:45:04,VALID,1010.65,VALID,0,VALID,97.9909,VALID,0.112112,VALID,25.1538,VALID,96,VALID,0,
2014-07-14, 00:46:04,VALID,1010.69,VALID,0,VALID,98.0367,VALID,0,VALID,25.1557,VALID,96,VALID,0,
2014-07-14, 00:47:04,VALID,1010.68,VALID,0,VALID,97.9833,VALID,0,VALID,25.1557,VALID,96,VALID,0,
2014-07-14, 00:48:04,VALID,1010.71,VALID,0,VALID,98.0062,VALID,0,VALID,25.1538,VALID,96,VALID,0,
2014-07-14, 00:49:04,VALID,1010.72,VALID,0,VALID,98.0214,VALID,0,VALID,25.1538,VALID,96,VALID,0,
2014-07-14, 00:50:04,VALID,1010.71,VALID,0,VALID,97.9452,VALID,0,VALID,25.1557,VALID,96,VALID,0,
2014-07-14, 00:51:04,VALID,1010.73,VALID,0,VALID,97.9909,VALID,0.112112,VALID,25.1752,VALID,96,VALID,0,
2014-07-14, 00:52:04,VALID,1010.74,VALID,0,VALID,98.0672,VALID,0,VALID,25.1538,VALID,96,VALID,0,
2014-07-14, 00:53:04,VALID,1010.72,VALID,0,VALID,98.0824,VALID,0.112112,VALID,25.1343,VALID,78,VALID,0,
2014-07-14, 00:54:04,VALID,1010.75,VALID,0,VALID,98.0824,VALID,0.112112,VALID,25.1557,VALID,75,VALID,0,
2014-07-14, 00:55:04,VALID,1010.74,VALID,0,VALID,98.0596,VALID,0,VALID,25.1557,VALID,75,VALID,0,
2014-07-14, 00:56:04,VALID,1010.77,VALID,0,VALID,98.1358,VALID,0,VALID,25.1557,VALID,75,VALID,0,
2014-07-14, 00:57:04,VALID,1010.74,VALID,0,VALID,98.1587,VALID,0,VALID,25.1771,VALID,75,VALID,0,
2014-07-14, 00:58:04,VALID,1010.72,VALID,0,VALID,98.0748,VALID,0,VALID,25.1557,VALID,62,VALID,0,
2014-07-14, 00:59:04,VALID,1010.71,VALID,0,VALID,98.0977,VALID,0,VALID,25.1362,VALID,61,VALID,0,
2014-07-14, 01:00:04,VALID,1010.69,VALID,0,VALID,98.0596,VALID,0,VALID,25.1362,VALID,88,VALID,0,
2014-07-14, 01:01:04,VALID,1010.63,VALID,0,VALID,97.9986,VALID,0,VALID,25.1557,VALID,74,VALID,0,
2014-07-14, 01:02:04,VALID,1010.62,VALID,0,VALID,97.9604,VALID,0,VALID,25.1362,VALID,68,VALID,0,
2014-07-14, 01:03:04,VALID,1010.61,VALID,0,VALID,97.8232,VALID,0,VALID,25.1557,VALID,71,VALID,0,
2014-07-14, 01:04:04,VALID,1010.61,VALID,0,VALID,97.7698,VALID,0,VALID,25.1966,VALID,71,VALID,0,
2014-07-14, 01:05:04,VALID,1010.55,VALID,0,VALID,97.7545,VALID,0,VALID,25.1771,VALID,71,VALID,0,
2014-07-14, 01:06:04,VALID,1010.6,VALID,0,VALID,97.7393,VALID,0,VALID,25.1557,VALID,71,VALID,0,
2014-07-14, 01:07:04,VALID,1010.62,VALID,0,VALID,97.785,VALID,0,VALID,25.1557,VALID,71,VALID,0,
2014-07-14, 01:08:04,VALID,1010.58,VALID,0,VALID,97.846,VALID,0,VALID,25.1557,VALID,71,VALID,0,
2014-07-14, 01:09:04,VALID,1010.57,VALID,0,VALID,97.8003,VALID,0,VALID,25.1557,VALID,71,VALID,0,
2014-07-14, 01:10:04,VALID,1010.56,VALID,0,VALID,97.7622,VALID,0,VALID,25.1557,VALID,71,VALID,0,
2014-07-14, 01:11:04,VALID,1010.56,VALID,0,VALID,97.7088,VALID,0,VALID,25.1752,VALID,71,VALID,0,
2014-07-14, 01:12:04,VALID,1010.57,VALID,0,VALID,97.6478,VALID,0,VALID,25.1947,VALID,71,VALID,0,
2014-07-14, 01:13:04,VALID,1010.57,VALID,0,VALID,97.358,VALID,0,VALID,25.1752,VALID,71,VALID,0,
2014-07-14, 01:14:04,VALID,1010.54,VALID,0,VALID,97.1902,VALID,0,VALID,25.1947,VALID,71,VALID,0,
2014-07-14, 01:15:04,VALID,1010.48,VALID,0,VALID,97.114,VALID,0,VALID,25.1947,VALID,71,VALID,0,
2014-07-14, 01:16:04,VALID,1010.51,VALID,0,VALID,96.8166,VALID,0,VALID,25.1947,VALID,71,VALID,0,
2014-07-14, 01:17:04,VALID,1010.49,VALID,0,VALID,96.5802,VALID,0,VALID,25.1947,VALID,71,VALID,0,
2014-07-14, 01:18:04,VALID,1010.51,VALID,0,VALID,96.5649,VALID,0,VALID,25.1947,VALID,71,VALID,0,
2014-07-14, 01:19:04,VALID,1010.48,VALID,0,VALID,96.4124,VALID,0,VALID,25.1947,VALID,71,VALID,0,
2014-07-14, 01:20:04,VALID,1010.49,VALID,0,VALID,96.3361,VALID,0,VALID,25.1947,VALID,71,VALID,0,
2014-07-14, 01:21:04,VALID,1010.51,VALID,0,VALID,96.298,VALID,0,VALID,25.1557,VALID,71,VALID,0,
2014-07-14, 01:22:04,VALID,1010.53,VALID,0,VALID,96.5802,VALID,0,VALID,25.1362,VALID,71,VALID,0,
2014-07-14, 01:23:04,VALID,1010.52,VALID,0,VALID,96.6488,VALID,0,VALID,25.1381,VALID,71,VALID,0,
2014-07-14, 01:24:04,VALID,1010.56,VALID,0,VALID,96.8928,VALID,0,VALID,25.0973,VALID,71,VALID,0,
2014-07-14, 01:25:04,VALID,1010.6,VALID,0,VALID,97.2207,VALID,0,VALID,25.1187,VALID,71,VALID,0,
2014-07-14, 01:26:04,VALID,1010.61,VALID,0,VALID,97.419,VALID,0,VALID,25.0583,VALID,71,VALID,0,
2014-07-14, 01:27:04,VALID,1010.63,VALID,0,VALID,97.6783,VALID,0,VALID,25.0193,VALID,71,VALID,0,
2014-07-14, 01:28:04,VALID,1010.62,VALID,0,VALID,97.8308,VALID,0,VALID,24.9998,VALID,71,VALID,0,
2014-07-14, 01:29:04,VALID,1010.65,VALID,0,VALID,97.9604,VALID,0,VALID,24.9803,VALID,71,VALID,0,
2014-07-14, 01:30:04,VALID,1010.65,VALID,0,VALID,98.1053,VALID,0,VALID,24.9608,VALID,71,VALID,0,
2014-07-14, 01:31:04,VALID,1010.65,VALID,0,VALID,98.2121,VALID,0,VALID,24.9413,VALID,71,VALID,0,
2014-07-14, 01:32:04,VALID,1010.67,VALID,0,VALID,98.357,VALID,0,VALID,24.9413,VALID,71,VALID,0,
2014-07-14, 01:33:04,VALID,1010.67,VALID,0,VALID,98.4485,VALID,0,VALID,24.9218,VALID,71,VALID,0,
2014-07-14, 01:34:04,VALID,1010.67,VALID,0,VALID,98.5324,VALID,0,VALID,24.9023,VALID,71,VALID,0,
2014-07-14, 01:35:04,VALID,1010.68,VALID,0,VALID,98.6239,VALID,0,VALID,24.9023,VALID,71,VALID,0,
2014-07-14, 01:36:04,VALID,1010.65,VALID,0,VALID,98.6772,VALID,0,VALID,24.9237,VALID,71,VALID,0,
2014-07-14, 01:37:04,VALID,1010.67,VALID,0,VALID,98.7688,VALID,0,VALID,24.9042,VALID,71,VALID,0,
2014-07-14, 01:38:04,VALID,1010.64,VALID,0,VALID,98.8755,VALID,0,VALID,24.8828,VALID,71,VALID,0,
2014-07-14, 01:39:04,VALID,1010.64,VALID,0,VALID,98.9975,VALID,0,VALID,24.8828,VALID,71,VALID,0,
2014-07-14, 01:40:04,VALID,1010.63,VALID,0,VALID,99.1653,VALID,0,VALID,24.8828,VALID,71,VALID,0,
2014-07-14, 01:41:04,VALID,1010.64,VALID,0,VALID,99.2034,VALID,0,VALID,24.8828,VALID,71,VALID,0,
2014-07-14, 01:42:04,VALID,1010.6,VALID,0,VALID,99.2568,VALID,0,VALID,24.9023,VALID,71,VALID,0,
2014-07-14, 01:43:04,VALID,1010.63,VALID,0,VALID,99.2873,VALID,0,VALID,24.9023,VALID,71,VALID,0,
2014-07-14, 01:44:04,VALID,1010.62,VALID,0,VALID,99.2949,VALID,0,VALID,24.9218,VALID,71,VALID,0,
2014-07-14, 01:45:04,VALID,1010.6,VALID,0,VALID,99.3407,VALID,0,VALID,24.9218,VALID,71,VALID,0,
2014-07-14, 01:46:04,VALID,1010.63,VALID,0,VALID,99.4398,VALID,0,VALID,24.9023,VALID,71,VALID,0,
2014-07-14, 01:47:04,VALID,1010.63,VALID,0,VALID,99.3941,VALID,0,VALID,24.9023,VALID,71,VALID,0,
2014-07-14, 01:48:04,VALID,1010.62,VALID,0,VALID,99.4398,VALID,0,VALID,24.9218,VALID,71,VALID,0,
2014-07-14, 01:49:04,VALID,1010.63,VALID,0,VALID,99.4551,VALID,0,VALID,24.9218,VALID,71,VALID,0,
2014-07-14, 01:50:04,VALID,1010.63,VALID,0,VALID,99.5085,VALID,0,VALID,24.9218,VALID,71,VALID,0,
2014-07-14, 01:51:04,VALID,1010.65,VALID,0,VALID,99.5923,VALID,0,VALID,24.9218,VALID,71,VALID,0,
2014-07-14, 01:52:04,VALID,1010.63,VALID,0,VALID,99.6762,VALID,0,VALID,24.9023,VALID,71,VALID,0,
2014-07-14, 01:53:04,VALID,1010.6,VALID,0,VALID,99.783,VALID,0,VALID,24.9023,VALID,71,VALID,0,
2014-07-14, 01:54:04,VALID,1010.58,VALID,0,VALID,99.844,VALID,0,VALID,24.9023,VALID,42,VALID,0,
2014-07-14, 01:55:04,VALID,1010.6,VALID,0,VALID,99.905,VALID,0,VALID,24.8828,VALID,42,VALID,0,
2014-07-14, 01:56:04,VALID,1010.56,VALID,0,VALID,100.012,VALID,0,VALID,24.8828,VALID,42,VALID,0,
2014-07-14, 01:57:04,VALID,1010.56,VALID,0,VALID,100.088,VALID,0,VALID,24.8633,VALID,42,VALID,0,
2014-07-14, 01:58:04,VALID,1010.54,VALID,0,VALID,100.202,VALID,0,VALID,24.8438,VALID,42,VALID,0,
2014-07-14, 01:59:04,VALID,1010.48,VALID,0,VALID,100.309,VALID,0,VALID,24.8633,VALID,42,VALID,0,
2014-07-14, 02:00:04,VALID,1010.49,VALID,0,VALID,100.416,VALID,0,VALID,24.8438,VALID,42,VALID,0,
2014-07-14, 02:01:04,VALID,1010.48,VALID,0,VALID,100.53,VALID,0,VALID,24.8438,VALID,42,VALID,0,
2014-07-14, 02:02:04,VALID,1010.44,VALID,0,VALID,100.66,VALID,0,VALID,24.8262,VALID,42,VALID,0,
2014-07-14, 02:03:04,VALID,1010.44,VALID,0,VALID,100.797,VALID,0,VALID,24.7835,VALID,42,VALID,0,
2014-07-14, 02:04:04,VALID,1010.45,VALID,0,VALID,100.889,VALID,0,VALID,24.7854,VALID,42,VALID,0,
2014-07-14, 02:05:04,VALID,1010.43,VALID,0,VALID,101.018,VALID,0,VALID,24.7854,VALID,42,VALID,0,
2014-07-14, 02:06:04,VALID,1010.43,VALID,0,VALID,101.156,VALID,0,VALID,24.7659,VALID,42,VALID,0,
2014-07-14, 02:07:04,VALID,1010.45,VALID,0,VALID,101.316,VALID,0,VALID,24.7464,VALID,42,VALID,0,
2014-07-14, 02:08:04,VALID,1010.46,VALID,0,VALID,101.438,VALID,0,VALID,24.7464,VALID,42,VALID,0,
2014-07-14, 02:09:04,VALID,1010.48,VALID,0,VALID,101.606,VALID,0,VALID,24.7269,VALID,42,VALID,0,
2014-07-14, 02:10:04,VALID,1010.48,VALID,0,VALID,101.728,VALID,0,VALID,24.7269,VALID,42,VALID,0,
2014-07-14, 02:11:04,VALID,1010.48,VALID,0,VALID,101.834,VALID,0,VALID,24.686,VALID,42,VALID,0,
2014-07-14, 02:12:04,VALID,1010.48,VALID,0,VALID,101.941,VALID,0,VALID,24.686,VALID,42,VALID,0,
2014-07-14, 02:13:04,VALID,1010.49,VALID,0,VALID,102.033,VALID,0,VALID,24.6879,VALID,42,VALID,0,
2014-07-14, 02:14:04,VALID,1010.48,VALID,0,VALID,102.185,VALID,0,VALID,24.6879,VALID,42,VALID,0,
2014-07-14, 02:15:04,VALID,1010.52,VALID,0,VALID,102.322,VALID,0,VALID,24.6684,VALID,42,VALID,0,
2014-07-14, 02:16:04,VALID,1010.48,VALID,0,VALID,102.46,VALID,0,VALID,24.6489,VALID,42,VALID,0,
2014-07-14, 02:17:04,VALID,1010.49,VALID,0,VALID,102.612,VALID,0,VALID,24.6294,VALID,42,VALID,0,
2014-07-14, 02:18:04,VALID,1010.48,VALID,0,VALID,102.757,VALID,0,VALID,24.6294,VALID,42,VALID,0,
2014-07-14, 02:19:04,VALID,1010.47,VALID,0,VALID,102.879,VALID,0,VALID,24.6313,VALID,42,VALID,0,
2014-07-14, 02:20:04,VALID,1010.47,VALID,0,VALID,102.963,VALID,0,VALID,24.6099,VALID,42,VALID,0,
2014-07-14, 02:21:04,VALID,1010.49,VALID,0,VALID,103.077,VALID,0,VALID,24.6099,VALID,42,VALID,0,
2014-07-14, 02:22:04,VALID,1010.45,VALID,0,VALID,103.176,VALID,0,VALID,24.5905,VALID,42,VALID,0,
2014-07-14, 02:23:04,VALID,1010.46,VALID,0,VALID,103.283,VALID,0,VALID,24.571,VALID,42,VALID,0,
2014-07-14, 02:24:04,VALID,1010.48,VALID,0,VALID,103.39,VALID,0,VALID,24.571,VALID,42,VALID,0,
2014-07-14, 02:25:04,VALID,1010.49,VALID,0,VALID,103.527,VALID,0,VALID,24.571,VALID,42,VALID,0,
2014-07-14, 02:26:04,VALID,1010.44,VALID,0,VALID,103.634,VALID,0,VALID,24.5515,VALID,42,VALID,0,
2014-07-14, 02:27:04,VALID,1010.46,VALID,0,VALID,103.718,VALID,0,VALID,24.5515,VALID,43,VALID,0,
2014-07-14, 02:28:04,VALID,1010.42,VALID,0,VALID,103.794,VALID,0,VALID,24.5301,VALID,43,VALID,0,
2014-07-14, 02:29:04,VALID,1010.43,VALID,0,VALID,103.916,VALID,0,VALID,24.571,VALID,43,VALID,0,
2014-07-14, 02:30:04,VALID,1010.4,VALID,0,VALID,104,VALID,0,VALID,24.5515,VALID,43,VALID,0,
2014-07-14, 02:31:04,VALID,1010.37,VALID,0,VALID,104,VALID,0,VALID,24.5301,VALID,43,VALID,0,
2014-07-14, 02:32:04,VALID,1010.35,VALID,0,VALID,104,VALID,0,VALID,24.571,VALID,43,VALID,0,
2014-07-14, 02:33:04,VALID,1010.34,VALID,0,VALID,104,VALID,0,VALID,24.5515,VALID,43,VALID,0,
2014-07-14, 02:34:04,VALID,1010.34,VALID,0,VALID,104,VALID,0,VALID,24.5728,VALID,43,VALID,0,
2014-07-14, 02:35:04,VALID,1010.31,VALID,0,VALID,104,VALID,0,VALID,24.5515,VALID,43,VALID,0,
2014-07-14, 02:36:04,VALID,1010.26,VALID,0,VALID,104,VALID,0,VALID,24.571,VALID,43,VALID,0,
2014-07-14, 02:37:04,VALID,1010.24,VALID,0,VALID,104,VALID,0,VALID,24.571,VALID,43,VALID,0,
2014-07-14, 02:38:04,VALID,1010.19,VALID,0,VALID,104,VALID,0,VALID,24.571,VALID,43,VALID,0,
2014-07-14, 02:39:04,VALID,1010.24,VALID,0,VALID,104,VALID,0,VALID,24.5923,VALID,43,VALID,0,
2014-07-14, 02:40:04,VALID,1010.21,VALID,0,VALID,104,VALID,0,VALID,24.571,VALID,51,VALID,0,
2014-07-14, 02:41:04,VALID,1010.2,VALID,0,VALID,104,VALID,0,VALID,24.571,VALID,51,VALID,0,
2014-07-14, 02:42:04,VALID,1010.19,VALID,0,VALID,104,VALID,0,VALID,24.5905,VALID,51,VALID,0,
2014-07-14, 02:43:04,VALID,1010.18,VALID,0,VALID,104,VALID,0,VALID,24.5905,VALID,51,VALID,0,
2014-07-14, 02:44:04,VALID,1010.17,VALID,0,VALID,104,VALID,0,VALID,24.5905,VALID,51,VALID,0,
2014-07-14, 02:45:04,VALID,1010.15,VALID,0,VALID,104,VALID,0,VALID,24.5905,VALID,51,VALID,0,
2014-07-14, 02:46:04,VALID,1010.16,VALID,0,VALID,104,VALID,0,VALID,24.6099,VALID,51,VALID,0,
2014-07-14, 02:47:04,VALID,1010.1,VALID,0,VALID,104,VALID,0,VALID,24.5905,VALID,51,VALID,0,
2014-07-14, 02:48:04,VALID,1010.1,VALID,0,VALID,104,VALID,0.112112,VALID,24.5905,VALID,51,VALID,0,
2014-07-14, 02:49:04,VALID,1010.11,VALID,0,VALID,104,VALID,0,VALID,24.571,VALID,51,VALID,0,
2014-07-14, 02:50:04,VALID,1010.12,VALID,0,VALID,104,VALID,0,VALID,24.5905,VALID,51,VALID,0,
2014-07-14, 02:51:04,VALID,1010.09,VALID,0,VALID,104,VALID,0,VALID,24.571,VALID,51,VALID,0,
2014-07-14, 02:52:04,VALID,1010.09,VALID,0,VALID,104,VALID,0,VALID,24.571,VALID,51,VALID,0,
2014-07-14, 02:53:04,VALID,1010.09,VALID,0,VALID,104,VALID,0.112112,VALID,24.571,VALID,51,VALID,0,
2014-07-14, 02:54:04,VALID,1010.08,VALID,0,VALID,104,VALID,0,VALID,24.5515,VALID,51,VALID,0,
2014-07-14, 02:55:04,VALID,1010.1,VALID,0,VALID,104,VALID,0,VALID,24.571,VALID,51,VALID,0,
2014-07-14, 02:56:04,VALID,1010.07,VALID,0,VALID,104,VALID,0,VALID,24.532,VALID,51,VALID,0,
2014-07-14, 02:57:04,VALID,1010.08,VALID,0,VALID,104,VALID,0,VALID,24.532,VALID,51,VALID,0,
2014-07-14, 02:58:04,VALID,1010.08,VALID,0,VALID,104,VALID,0,VALID,24.532,VALID,51,VALID,0,
2014-07-14, 02:59:04,VALID,1010.1,VALID,0,VALID,104,VALID,0.112112,VALID,24.532,VALID,51,VALID,0,
2014-07-14, 03:00:04,VALID,1010.1,VALID,0,VALID,104,VALID,0,VALID,24.532,VALID,59,VALID,0,
2014-07-14, 03:01:04,VALID,1010.07,VALID,0,VALID,104,VALID,0.112112,VALID,24.532,VALID,59,VALID,0,
2014-07-14, 03:02:04,VALID,1010.11,VALID,0,VALID,104,VALID,0.112112,VALID,24.532,VALID,59,VALID,0,
2014-07-14, 03:03:04,VALID,1010.1,VALID,0,VALID,104,VALID,0,VALID,24.532,VALID,59,VALID,0,
2014-07-14, 03:04:04,VALID,1010.11,VALID,0,VALID,104,VALID,0,VALID,24.532,VALID,59,VALID,0,
2014-07-14, 03:05:04,VALID,1010.11,VALID,0,VALID,104,VALID,0,VALID,24.5125,VALID,59,VALID,0,
2014-07-14, 03:06:04,VALID,1010.11,VALID,0,VALID,104,VALID,0.112112,VALID,24.532,VALID,71,VALID,0,
2014-07-14, 03:07:04,VALID,1010.09,VALID,0,VALID,104,VALID,0,VALID,24.532,VALID,71,VALID,0,
2014-07-14, 03:08:04,VALID,1010.08,VALID,0,VALID,104,VALID,0,VALID,24.532,VALID,71,VALID,0,
2014-07-14, 03:09:04,VALID,1010.07,VALID,0,VALID,104,VALID,0,VALID,24.5515,VALID,71,VALID,0,
2014-07-14, 03:10:04,VALID,1010.06,VALID,0,VALID,104,VALID,0,VALID,24.571,VALID,71,VALID,0,
2014-07-14, 03:11:04,VALID,1010.05,VALID,0,VALID,104,VALID,0,VALID,24.5515,VALID,71,VALID,0,
2014-07-14, 03:12:04,VALID,1010.04,VALID,0,VALID,104,VALID,0.112112,VALID,24.571,VALID,71,VALID,0,
2014-07-14, 03:13:04,VALID,1010.02,VALID,0,VALID,104,VALID,0,VALID,24.571,VALID,71,VALID,0,
2014-07-14, 03:14:04,VALID,1010.02,VALID,0,VALID,104,VALID,0.112112,VALID,24.571,VALID,71,VALID,0,
2014-07-14, 03:15:04,VALID,1010.02,VALID,0,VALID,104,VALID,0,VALID,24.571,VALID,71,VALID,0,
2014-07-14, 03:16:04,VALID,1009.98,VALID,0,VALID,104,VALID,0,VALID,24.5496,VALID,71,VALID,0,
2014-07-14, 03:17:04,VALID,1009.96,VALID,0,VALID,104,VALID,0,VALID,24.571,VALID,71,VALID,0,
2014-07-14, 03:18:04,VALID,1009.97,VALID,0,VALID,104,VALID,0,VALID,24.571,VALID,71,VALID,0,
2014-07-14, 03:19:04,VALID,1009.97,VALID,0,VALID,104,VALID,0,VALID,24.5515,VALID,71,VALID,0,
2014-07-14, 03:20:04,VALID,1009.97,VALID,0,VALID,104,VALID,0,VALID,24.5515,VALID,71,VALID,0,
2014-07-14, 03:21:04,VALID,1010,VALID,0,VALID,104,VALID,0,VALID,24.532,VALID,71,VALID,0,
2014-07-14, 03:22:04,VALID,1009.99,VALID,0,VALID,104,VALID,0,VALID,24.532,VALID,71,VALID,0,
2014-07-14, 03:23:04,VALID,1010.02,VALID,0,VALID,104,VALID,0,VALID,24.5125,VALID,71,VALID,0,
2014-07-14, 03:24:04,VALID,1010.01,VALID,0,VALID,104,VALID,0,VALID,24.5125,VALID,71,VALID,0,
2014-07-14, 03:25:04,VALID,1010.05,VALID,0,VALID,104,VALID,0,VALID,24.5125,VALID,71,VALID,0,
2014-07-14, 03:26:04,VALID,1010.07,VALID,0,VALID,104,VALID,0,VALID,24.5125,VALID,71,VALID,0,
2014-07-14, 03:27:04,VALID,1010.09,VALID,0,VALID,104,VALID,0,VALID,24.5125,VALID,71,VALID,0,
2014-07-14, 03:28:04,VALID,1010.1,VALID,0,VALID,104,VALID,0,VALID,24.5125,VALID,71,VALID,0,
2014-07-14, 03:29:04,VALID,1010.1,VALID,0,VALID,104,VALID,0,VALID,24.5125,VALID,71,VALID,0,
2014-07-14, 03:30:04,VALID,1010.11,VALID,0,VALID,104,VALID,0,VALID,24.5338,VALID,71,VALID,0,
2014-07-14, 03:31:04,VALID,1010.13,VALID,0,VALID,104,VALID,0,VALID,24.493,VALID,71,VALID,0,
2014-07-14, 03:32:04,VALID,1010.13,VALID,0,VALID,104,VALID,0,VALID,24.5125,VALID,71,VALID,0,
2014-07-14, 03:33:04,VALID,1010.13,VALID,0,VALID,104,VALID,0,VALID,24.532,VALID,71,VALID,0,
2014-07-14, 03:34:04,VALID,1010.14,VALID,0,VALID,104,VALID,0,VALID,24.5125,VALID,71,VALID,0,
2014-07-14, 03:35:04,VALID,1010.17,VALID,0,VALID,104,VALID,0,VALID,24.5533,VALID,71,VALID,0,
2014-07-14, 03:36:04,VALID,1010.13,VALID,0,VALID,104,VALID,0,VALID,24.5515,VALID,71,VALID,0,
2014-07-14, 03:37:04,VALID,1010.13,VALID,0,VALID,104,VALID,0.112112,VALID,24.5301,VALID,71,VALID,0,
2014-07-14, 03:38:04,VALID,1010.1,VALID,0,VALID,104,VALID,0,VALID,24.532,VALID,71,VALID,0,
2014-07-14, 03:39:04,VALID,1010.14,VALID,0,VALID,104,VALID,0,VALID,24.5301,VALID,71,VALID,0,
2014-07-14, 03:40:04,VALID,1010.1,VALID,0,VALID,104,VALID,0,VALID,24.5515,VALID,71,VALID,0,
2014-07-14, 03:41:04,VALID,1010.14,VALID,0,VALID,104,VALID,0,VALID,24.532,VALID,71,VALID,0,
2014-07-14, 03:42:04,VALID,1010.1,VALID,0,VALID,104,VALID,0,VALID,24.5125,VALID,71,VALID,0,
2014-07-14, 03:43:04,VALID,1010.08,VALID,0,VALID,104,VALID,0,VALID,24.5125,VALID,71,VALID,0,
2014-07-14, 03:44:04,VALID,1010.1,VALID,0,VALID,104,VALID,0,VALID,24.5125,VALID,71,VALID,0,
2014-07-14, 03:45:04,VALID,1010.08,VALID,0,VALID,104,VALID,0,VALID,24.493,VALID,71,VALID,0,
2014-07-14, 03:46:04,VALID,1010.04,VALID,0,VALID,104,VALID,0,VALID,24.4735,VALID,71,VALID,0,
2014-07-14, 03:47:04,VALID,1010.04,VALID,0,VALID,104,VALID,0,VALID,24.4327,VALID,71,VALID,0,
2014-07-14, 03:48:04,VALID,1010.05,VALID,0,VALID,104,VALID,0,VALID,24.454,VALID,71,VALID,0,
2014-07-14, 03:49:04,VALID,1010.07,VALID,0,VALID,104,VALID,0,VALID,24.454,VALID,71,VALID,0,
2014-07-14, 03:50:04,VALID,1010.04,VALID,0,VALID,104,VALID,0,VALID,24.4132,VALID,71,VALID,0,
2014-07-14, 03:51:04,VALID,1010.04,VALID,0,VALID,104,VALID,0,VALID,24.4345,VALID,71,VALID,0,
2014-07-14, 03:52:04,VALID,1010.01,VALID,0,VALID,104,VALID,0,VALID,24.4345,VALID,71,VALID,0,
2014-07-14, 03:53:04,VALID,1010.03,VALID,0,VALID,104,VALID,0,VALID,24.4345,VALID,71,VALID,0,
2014-07-14, 03:54:04,VALID,1010,VALID,0,VALID,104,VALID,0,VALID,24.4345,VALID,71,VALID,0,
2014-07-14, 03:55:04,VALID,1010.03,VALID,0,VALID,104,VALID,0,VALID,24.415,VALID,71,VALID,0,
2014-07-14, 03:56:04,VALID,1010.04,VALID,0,VALID,104,VALID,0,VALID,24.415,VALID,71,VALID,0,
2014-07-14, 03:57:04,VALID,1010.03,VALID,0,VALID,104,VALID,0,VALID,24.415,VALID,71,VALID,0,
2014-07-14, 03:58:04,VALID,1010.05,VALID,0,VALID,104,VALID,0,VALID,24.4132,VALID,71,VALID,0,
2014-07-14, 03:59:04,VALID,1010.04,VALID,0,VALID,104,VALID,0,VALID,24.454,VALID,71,VALID,0,
2014-07-14, 04:00:04,VALID,1010.04,VALID,0,VALID,104,VALID,0,VALID,24.454,VALID,71,VALID,0,
2014-07-14, 04:01:04,VALID,1009.99,VALID,0,VALID,104,VALID,0,VALID,24.4345,VALID,71,VALID,0,
2014-07-14, 04:02:04,VALID,1009.99,VALID,0,VALID,104,VALID,0,VALID,24.4345,VALID,71,VALID,0,
2014-07-14, 04:03:04,VALID,1010,VALID,0,VALID,104,VALID,0,VALID,24.454,VALID,71,VALID,0,
2014-07-14, 04:04:04,VALID,1010.01,VALID,0,VALID,104,VALID,0,VALID,24.454,VALID,71,VALID,0,